WXM80 ListenWXM80 Stop

You find our weather info also at:

UK Metoffice

WeatherCloud

Weather Underground

Northeastern Weather Network

AWEKAS

Citizen Weather Observer Program (CWOP)

HAMweather, WeatherForYou, PWS Weather


Weather Underground History page Text

Daily Summary for January 14, 2017 Units:  Metric    English   Both
« Previous Day
Next Day »
Daily Weekly Monthly Yearly Custom
  High: Low: Average:
Temperature: 0.2 °C -2.8 °C -1.4 °C
Dew Point: -2.3 °C -9.8 °C -6.6 °C
Humidity: 93 % 48 % 69 %
Wind Speed: 14.5 km/h 0 km/h 4.2 km/h
Wind Gust: 25.9 km/h - -
Wind:- - ENE
Pressure: 1039.2 hPa 1025.3 hPa -
Precipitation: 1.78 mm    
Historical Graphs
 
 
Tabular Data for January 14, 2017
Time Temperature Dew Point Pressure Wind Wind Speed Wind Gust Humidity Rainfall Rate (Hourly)
00:04 -0.6 °C -7.8 °C 1038.1 hPa NNE 10 km/h 22.2 km/h 58 % 0 mm
00:09 -0.6 °C -7.6 °C 1038.5 hPa North 7.9 km/h 14.8 km/h 59 % 0 mm
00:14 -0.6 °C -7.7 °C 1038.1 hPa NNE 10.6 km/h 16.7 km/h 59 % 0 mm
00:19 -0.7 °C -7.5 °C 1038.5 hPa North 12.4 km/h 18.5 km/h 60 % 0 mm
00:24 -0.7 °C -7.7 °C 1038.5 hPa NNE 9.5 km/h 14.8 km/h 59 % 0 mm
00:29 -0.8 °C -7.6 °C 1038.5 hPa NE 12.9 km/h 20.4 km/h 60 % 0 mm
00:34 -0.8 °C -7.6 °C 1038.5 hPa NNE 9.8 km/h 14.8 km/h 60 % 0 mm
00:39 -0.9 °C -7.5 °C 1038.5 hPa NE 13.2 km/h 19.3 km/h 61 % 0 mm
00:44 -0.9 °C -7.7 °C 1038.5 hPa NNE 13.5 km/h 16.7 km/h 60 % 0 mm
00:49 -1 °C -7.8 °C 1038.5 hPa NNE 10.6 km/h 14.8 km/h 60 % 0 mm
00:55 -1 °C -7.6 °C 1038.5 hPa NE 10 km/h 14.5 km/h 61 % 0 mm
01:00 -1.1 °C -7.4 °C 1038.5 hPa NE 11.9 km/h 18.5 km/h 62 % 0 mm
01:05 -1.1 °C -7.5 °C 1038.5 hPa NNE 11.3 km/h 18.5 km/h 62 % 0 mm
01:10 -1.2 °C -7.5 °C 1038.5 hPa NNE 12.1 km/h 14.8 km/h 62 % 0 mm
01:15 -1.2 °C -7.7 °C 1038.5 hPa North 10.1 km/h 18.5 km/h 61 % 0 mm
01:20 -1.2 °C -7.8 °C 1038.5 hPa North 11.1 km/h 25.9 km/h 61 % 0 mm
01:25 -1.2 °C -7.8 °C 1038.5 hPa North 8.7 km/h 18.5 km/h 61 % 0 mm
01:30 -1.2 °C -7.6 °C 1038.5 hPa NNE 10.8 km/h 14.8 km/h 62 % 0 mm
01:35 -1.2 °C -7.4 °C 1038.5 hPa NNW 7.7 km/h 16.7 km/h 63 % 0 mm
01:40 -1.3 °C -7.6 °C 1038.5 hPa NNE 8.9 km/h 11.1 km/h 62 % 0 mm
01:45 -1.3 °C -7.6 °C 1038.8 hPa NE 9.7 km/h 16.7 km/h 62 % 0 mm
01:50 -1.3 °C -7.8 °C 1038.8 hPa NNE 14 km/h 18.5 km/h 61 % 0 mm
01:56 -1.3 °C -7.9 °C 1038.8 hPa North 10.8 km/h 18.5 km/h 61 % 0 mm
02:01 -1.3 °C -7.9 °C 1038.8 hPa NNE 10.1 km/h 16.7 km/h 61 % 0 mm
02:06 -1.4 °C -8.2 °C 1038.8 hPa NNE 9.8 km/h 18.5 km/h 60 % 0 mm
02:11 -1.4 °C -8.2 °C 1038.8 hPa North 9.2 km/h 14.8 km/h 60 % 0 mm
02:16 -1.4 °C -7.9 °C 1038.8 hPa NNE 6.3 km/h 9.3 km/h 61 % 0 mm
02:21 -1.4 °C -7.8 °C 1038.8 hPa NNE 8.7 km/h 13 km/h 62 % 0 mm
02:26 -1.4 °C -8 °C 1038.8 hPa NNE 10.1 km/h 18.5 km/h 61 % 0 mm
02:31 -1.4 °C -7.8 °C 1038.8 hPa NE 9.2 km/h 19.3 km/h 62 % 0 mm
02:36 -1.5 °C -8.1 °C 1039.2 hPa North 12.4 km/h 18.5 km/h 61 % 0 mm
02:41 -1.5 °C -8.1 °C 1038.8 hPa North 9.2 km/h 17.7 km/h 61 % 0 mm
02:46 -1.6 °C -8.1 °C 1039.2 hPa NE 9.7 km/h 14.8 km/h 61 % 0 mm
02:51 -1.6 °C -8.3 °C 1039.2 hPa NE 14.5 km/h 20.9 km/h 60 % 0 mm
02:56 -1.6 °C -8.6 °C 1039.2 hPa NNE 11.3 km/h 16.7 km/h 59 % 0 mm
03:01 -1.7 °C -8.4 °C 1038.8 hPa NNE 12.4 km/h 18.5 km/h 60 % 0 mm
03:07 -1.7 °C -8.4 °C 1038.8 hPa NNE 10.3 km/h 11.3 km/h 60 % 0 mm
03:12 -1.7 °C -8.5 °C 1039.2 hPa NE 12.1 km/h 18.5 km/h 60 % 0 mm
03:17 -1.7 °C -8.5 °C 1038.8 hPa NNE 12.7 km/h 20.4 km/h 60 % 0 mm
03:22 -1.8 °C -8.6 °C 1038.8 hPa NNE 10.9 km/h 13 km/h 60 % 0 mm
03:27 -1.8 °C -8.3 °C 1038.8 hPa NNE 12.9 km/h 18.5 km/h 61 % 0 mm
03:32 -1.8 °C -8.6 °C 1038.8 hPa NNE 6.6 km/h 9.7 km/h 60 % 0 mm
03:37 -1.8 °C -8.4 °C 1038.8 hPa NNE 7.6 km/h 16.7 km/h 61 % 0 mm
03:42 -1.8 °C -8.2 °C 1038.8 hPa NNE 6.9 km/h 14.8 km/h 62 % 0 mm
03:47 -1.8 °C -8.4 °C 1038.8 hPa North 7.4 km/h 12.9 km/h 61 % 0 mm
03:52 -1.9 °C -8.4 °C 1038.8 hPa North 9.8 km/h 13 km/h 61 % 0 mm
03:57 -1.9 °C -8.2 °C 1038.8 hPa North 6.6 km/h 13 km/h 62 % 0 mm
04:02 -1.9 °C -8.2 °C 1038.8 hPa NE 10.6 km/h 16.7 km/h 62 % 0 mm
04:07 -1.9 °C -8.2 °C 1038.5 hPa NNE 8.5 km/h 13 km/h 62 % 0 mm
04:12 -1.9 °C -8.4 °C 1038.8 hPa North 8.7 km/h 13 km/h 61 % 0 mm
04:17 -1.9 °C -8.5 °C 1038.8 hPa NNE 9.5 km/h 14.8 km/h 61 % 0 mm
04:22 -1.9 °C -8.3 °C 1038.8 hPa NNE 9.2 km/h 13 km/h 62 % 0 mm
04:27 -2 °C -8.3 °C 1038.8 hPa NE 5 km/h 9.3 km/h 62 % 0 mm
04:32 -2 °C -8.3 °C 1038.8 hPa NE 5.6 km/h 11.1 km/h 62 % 0 mm
04:37 -2 °C -8.3 °C 1038.5 hPa NE 4.8 km/h 11.1 km/h 62 % 0 mm
04:42 -2.1 °C -8.4 °C 1038.5 hPa NNE 5.1 km/h 9.3 km/h 62 % 0 mm
04:47 -2.1 °C -8.6 °C 1038.5 hPa NNE 9.7 km/h 14.8 km/h 61 % 0 mm
04:52 -2.1 °C -8.8 °C 1038.5 hPa NNE 6.6 km/h 9.7 km/h 60 % 0 mm
04:57 -2.2 °C -8.7 °C 1038.5 hPa NNE 6.9 km/h 17.7 km/h 61 % 0 mm
05:02 -2.2 °C -8.7 °C 1038.5 hPa NNE 9.5 km/h 14.8 km/h 61 % 0 mm
05:08 -2.2 °C -8.9 °C 1038.5 hPa NNE 7.1 km/h 9.7 km/h 60 % 0 mm
05:13 -2.2 °C -8.7 °C 1038.5 hPa NNE 9.5 km/h 13 km/h 61 % 0 mm
05:18 -2.2 °C -8.7 °C 1038.5 hPa NNE 5.5 km/h 11.3 km/h 61 % 0 mm
05:23 -2.2 °C -8.7 °C 1038.5 hPa NNE 5 km/h 14.8 km/h 61 % 0 mm
05:28 -2.2 °C -8.9 °C 1038.5 hPa NNE 10.5 km/h 16.7 km/h 60 % 0 mm
05:33 -2.2 °C -8.9 °C 1038.5 hPa NNE 9.7 km/h 14.8 km/h 60 % 0 mm
05:38 -2.2 °C -8.7 °C 1038.5 hPa North 11.3 km/h 14.8 km/h 61 % 0 mm
05:43 -2.3 °C -8.8 °C 1038.5 hPa NNE 4.5 km/h 9.3 km/h 61 % 0 mm
05:48 -2.3 °C -9 °C 1038.1 hPa NNE 8.2 km/h 13 km/h 60 % 0 mm
05:53 -2.3 °C -8.8 °C 1038.1 hPa North 12.1 km/h 17.7 km/h 61 % 0 mm
05:58 -2.3 °C -9.1 °C 1038.1 hPa NE 5 km/h 7.4 km/h 60 % 0 mm
06:03 -2.3 °C -8.8 °C 1038.1 hPa North 8.2 km/h 11.3 km/h 61 % 0 mm
06:08 -2.4 °C -8.7 °C 1038.1 hPa NE 8.7 km/h 14.8 km/h 62 % 0 mm
06:14 -2.4 °C -8.7 °C 1038.5 hPa NE 7.2 km/h 11.1 km/h 62 % 0 mm
06:19 -2.4 °C -8.5 °C 1038.5 hPa NNE 10.1 km/h 12.9 km/h 63 % 0 mm
06:24 -2.4 °C -8.6 °C 1038.1 hPa NE 11.4 km/h 13 km/h 63 % 0 mm
06:29 -2.4 °C -8.6 °C 1038.1 hPa North 10.6 km/h 16.7 km/h 63 % 0 mm
06:34 -2.4 °C -8.6 °C 1038.1 hPa NE 4.8 km/h 14.5 km/h 63 % 0 mm
06:39 -2.5 °C -8.4 °C 1038.1 hPa NNE 7.1 km/h 14.5 km/h 64 % 0 mm
06:44 -2.5 °C -8.4 °C 1038.5 hPa NE 4.8 km/h 11.3 km/h 64 % 0 mm
06:49 -2.6 °C -8.4 °C 1038.1 hPa NE 4.8 km/h 9.7 km/h 64 % 0 mm
06:54 -2.6 °C -8.4 °C 1038.1 hPa NE 1.6 km/h 14.5 km/h 64 % 0 mm
06:59 -2.6 °C -8.7 °C 1038.1 hPa NNE 11.4 km/h 16.7 km/h 63 % 0 mm
07:04 -2.7 °C -8.7 °C 1038.1 hPa NNE 3.2 km/h 16.1 km/h 63 % 0 mm
07:09 -2.7 °C -8.7 °C 1038.1 hPa NNE 4.8 km/h 12.9 km/h 63 % 0 mm
07:14 -2.7 °C -8.7 °C 1038.1 hPa NNE 8 km/h 13 km/h 63 % 0 mm
07:19 -2.7 °C -8.8 °C 1038.1 hPa NNE 8 km/h 16.1 km/h 63 % 0 mm
07:24 -2.7 °C -8.8 °C 1038.5 hPa NNE 8 km/h 14.5 km/h 63 % 0 mm
07:29 -2.7 °C -8.8 °C 1038.5 hPa NNE 4.8 km/h 11.1 km/h 63 % 0 mm
07:34 -2.7 °C -8.8 °C 1038.5 hPa NNE 5.6 km/h 13 km/h 63 % 0 mm
07:39 -2.7 °C -8.8 °C 1038.1 hPa NE 3.2 km/h 8 km/h 63 % 0 mm
07:44 -2.8 °C -8.4 °C 1038.1 hPa NE 4.8 km/h 9.7 km/h 65 % 0 mm
07:49 -2.8 °C -8.7 °C 1038.5 hPa NNE 5.3 km/h 8 km/h 64 % 0 mm
07:54 -2.8 °C -8.7 °C 1038.5 hPa NNE 4.8 km/h 11.3 km/h 64 % 0 mm
07:59 -2.8 °C -8.7 °C 1038.1 hPa NNE 6.1 km/h 9.3 km/h 64 % 0 mm
08:04 -2.8 °C -8.7 °C 1038.1 hPa ENE 6.9 km/h 9.3 km/h 64 % 0 mm
08:09 -2.7 °C -8.6 °C 1038.1 hPa NNE 5.5 km/h 9.3 km/h 64 % 0 mm
08:14 -2.7 °C -8.6 °C 1038.5 hPa NNE 5.5 km/h 9.7 km/h 64 % 0 mm
08:19 -2.6 °C -8.5 °C 1038.1 hPa NE 7.1 km/h 9.3 km/h 64 % 0 mm
08:24 -2.5 °C -8.4 °C 1038.1 hPa NE 3.2 km/h 5.6 km/h 64 % 0 mm
08:29 -2.4 °C -8.6 °C 1038.1 hPa NNE 6.3 km/h 9.3 km/h 63 % 0 mm
08:34 -2.3 °C -8.6 °C 1038.1 hPa ENE 3.1 km/h 5.6 km/h 62 % 0 mm
08:39 -2.3 °C -8.4 °C 1038.5 hPa NNE 4.5 km/h 8 km/h 63 % 0 mm
08:45 -2.2 °C -8.3 °C 1038.1 hPa ENE 5 km/h 9.3 km/h 63 % 0 mm
08:50 -2.1 °C -8.4 °C 1038.1 hPa ENE 6 km/h 9.3 km/h 62 % 0 mm
08:55 -1.9 °C -8.1 °C 1038.1 hPa NE 5.6 km/h 5.6 km/h 63 % 0 mm
09:00 -1.9 °C -8.2 °C 1038.1 hPa ENE 4.3 km/h 7.4 km/h 62 % 0 mm
09:05 -1.9 °C -8 °C 1037.8 hPa NNE 4 km/h 6.4 km/h 63 % 0 mm
09:10 -1.8 °C -7.9 °C 1038.1 hPa ENE 3.9 km/h 5.6 km/h 63 % 0 mm
09:15 -1.7 °C -7.8 °C 1038.1 hPa ENE 6.4 km/h 6.4 km/h 63 % 0 mm
09:20 -1.6 °C -7.7 °C 1038.1 hPa East 5.5 km/h 9.3 km/h 63 % 0 mm
09:25 -1.4 °C -7.8 °C 1038.1 hPa East 5.1 km/h 11.1 km/h 62 % 0 mm
09:30 -1.3 °C -8.3 °C 1038.1 hPa ENE 9.3 km/h 14.8 km/h 59 % 0 mm
09:35 -1.2 °C -8.2 °C 1038.1 hPa ENE 7.4 km/h 11.1 km/h 59 % 0 mm
09:40 -1.1 °C -8.5 °C 1038.1 hPa ENE 4.2 km/h 5.6 km/h 57 % 0 mm
09:45 -0.9 °C -8.6 °C 1037.8 hPa ENE 9.3 km/h 14.8 km/h 56 % 0 mm
09:51 -0.9 °C -8.6 °C 1038.1 hPa East 5.5 km/h 11.1 km/h 56 % 0 mm
09:56 -0.7 °C -8.2 °C 1038.1 hPa East 4.5 km/h 7.4 km/h 57 % 0 mm
10:01 -0.5 °C -8.9 °C 1037.8 hPa NE 5.1 km/h 11.1 km/h 53 % 0 mm
10:06 -0.3 °C -8.8 °C 1037.8 hPa ENE 6 km/h 11.3 km/h 53 % 0 mm
10:11 -0.1 °C -9.1 °C 1037.5 hPa ENE 8.7 km/h 16.7 km/h 51 % 0 mm
10:16 0 °C -8.9 °C 1037.5 hPa ENE 9.3 km/h 14.8 km/h 51 % 0 mm
10:21 0 °C -8.7 °C 1037.5 hPa East 7.7 km/h 11.1 km/h 52 % 0 mm
10:26 0 °C -9.2 °C 1037.8 hPa ENE 9.2 km/h 13 km/h 50 % 0 mm
10:31 -0.1 °C -9.3 °C 1037.8 hPa ENE 5.1 km/h 13 km/h 50 % 0 mm
10:36 -0.1 °C -9.8 °C 1037.8 hPa East 4.7 km/h 9.3 km/h 48 % 0 mm
10:41 0 °C -9.4 °C 1037.5 hPa East 3.4 km/h 8 km/h 49 % 0 mm
10:46 -0.1 °C -9.6 °C 1037.5 hPa East 5 km/h 8 km/h 49 % 0 mm
10:51 -0.2 °C -9.7 °C 1037.1 hPa ENE 5.3 km/h 7.4 km/h 49 % 0 mm
10:56 -0.3 °C -8.9 °C 1037.1 hPa ENE 1.1 km/h 5.6 km/h 52 % 0 mm
11:02 -0.3 °C -8.7 °C 1036.8 hPa ENE 6.3 km/h 11.3 km/h 53 % 0 mm
11:07 -0.2 °C -8.7 °C 1036.8 hPa ENE 6 km/h 8 km/h 53 % 0 mm
11:12 -0.3 °C -9.4 °C 1036.5 hPa ENE 2.1 km/h 5.6 km/h 50 % 0 mm
11:17 -0.3 °C -9.3 °C 1036.1 hPa ENE 4.2 km/h 6.4 km/h 51 % 0 mm
11:22 -0.3 °C -9 °C 1036.1 hPa NE 6.4 km/h 11.1 km/h 52 % 0 mm
11:27 -0.3 °C -8.9 °C 1035.4 hPa ENE 4.5 km/h 5.6 km/h 52 % 0 mm
11:32 -0.2 °C -9.4 °C 1035.8 hPa ENE 6.3 km/h 13 km/h 50 % 0 mm
11:37 -0.2 °C -8.8 °C 1035.4 hPa NNE 3.4 km/h 6.4 km/h 52 % 0 mm
11:42 0 °C -8.4 °C 1035.4 hPa NE 3.5 km/h 5.6 km/h 53 % 0 mm
11:47 0.1 °C -8.9 °C 1035.4 hPa NE 2.9 km/h 5.6 km/h 51 % 0 mm
11:52 0.1 °C -8.7 °C 1035.1 hPa ENE 3.5 km/h 7.4 km/h 52 % 0 mm
11:57 0.1 °C -8.2 °C 1035.1 hPa NNE 5.3 km/h 9.3 km/h 54 % 0 mm
12:02 0.1 °C -8.2 °C 1034.8 hPa NE 3.5 km/h 6.4 km/h 54 % 0 mm
12:07 0 °C -8.2 °C 1034.8 hPa ENE 4.5 km/h 7.4 km/h 54 % 0 mm
12:12 -0.1 °C -8.5 °C 1034.8 hPa ENE 2.4 km/h 7.4 km/h 53 % 0 mm
12:17 -0.2 °C -8.4 °C 1034.4 hPa ENE 2.3 km/h 5.6 km/h 54 % 0 mm
12:22 -0.1 °C -8.3 °C 1034.4 hPa ENE 4.8 km/h 6.4 km/h 54 % 0 mm
12:28 -0.2 °C -8.4 °C 1034.4 hPa NE 5.1 km/h 7.4 km/h 54 % 0 mm
12:33 -0.1 °C -8.1 °C 1034.1 hPa NNE 3.4 km/h 5.6 km/h 55 % 0 mm
12:38 -0.1 °C -8.3 °C 1033.7 hPa ENE 0.5 km/h 5.6 km/h 54 % 0 mm
12:43 -0.1 °C -8.1 °C 1033.7 hPa NE 2.6 km/h 5.6 km/h 55 % 0 mm
12:48 -0.1 °C -8.5 °C 1033.7 hPa ENE 3.1 km/h 11.1 km/h 53 % 0 mm
12:53 -0.1 °C -8.3 °C 1033.4 hPa NE 3.9 km/h 5.6 km/h 54 % 0 mm
12:58 -0.1 °C -8.1 °C 1033.4 hPa NE 3.9 km/h 5.6 km/h 55 % 0 mm
13:03 -0.1 °C -8.3 °C 1033.7 hPa NE 1.3 km/h 5.6 km/h 54 % 0 mm
13:08 -0.1 °C -7.8 °C 1033.7 hPa NNE 4.7 km/h 9.3 km/h 56 % 0 mm
13:13 -0.1 °C -8.1 °C 1033.7 hPa NNE 1.3 km/h 3.7 km/h 55 % 0 mm
13:18 -0.1 °C -8.1 °C 1033.7 hPa NNE 1.6 km/h 5.6 km/h 55 % 0 mm
13:23 0 °C -8 °C 1033.7 hPa North 2.7 km/h 5.6 km/h 55 % 0 mm
13:28 0.1 °C -7.7 °C 1033.7 hPa NE 1.6 km/h 3.7 km/h 56 % 0 mm
13:34 0.1 °C -7.9 °C 1033.7 hPa NE 2.3 km/h 3.7 km/h 55 % 0 mm
13:39 0.1 °C -7.7 °C 1033.7 hPa NE 0.2 km/h 1.6 km/h 56 % 0 mm
13:44 0.2 °C -7.6 °C 1033.4 hPa NE 0.6 km/h 3.2 km/h 56 % 0 mm
13:49 0.2 °C -7.8 °C 1033.1 hPa Calm   1.6 km/h 55 % 0 mm
13:54 0.2 °C -8.1 °C 1033.1 hPa Calm   3.2 km/h 54 % 0 mm
13:59 0.2 °C -8 °C 1033.1 hPa NE 0.3 km/h   54 % 0 mm
14:04 0.2 °C -8.1 °C 1033.1 hPa Calm   1.6 km/h 54 % 0 mm
14:09 0.2 °C -8.1 °C 1032.7 hPa Calm   1.6 km/h 54 % 0 mm
14:14 0.2 °C -8.1 °C 1032.7 hPa Calm     54 % 0 mm
14:19 0.2 °C -8.1 °C 1032.7 hPa Calm   1.6 km/h 54 % 0 mm
14:24 0.1 °C -7.9 °C 1032.4 hPa Calm   3.2 km/h 55 % 0 mm
14:29 0.1 °C -8.2 °C 1032.4 hPa Calm     54 % 0 mm
14:34 0.1 °C -7.9 °C 1032.4 hPa Calm   4.8 km/h 55 % 0 mm
14:39 0 °C -8 °C 1032.1 hPa NE 3.2 km/h 4.8 km/h 55 % 0 mm
14:44 -0.1 °C -7.8 °C 1032.1 hPa NE 0.5 km/h 1.9 km/h 56 % 0 mm
14:49 -0.1 °C -7.6 °C 1032.1 hPa Calm   3.2 km/h 57 % 0 mm
14:54 -0.1 °C -7.6 °C 1032.1 hPa Calm   3.2 km/h 57 % 0 mm
14:59 -0.1 °C -7.6 °C 1032.1 hPa NE 1.4 km/h 3.7 km/h 57 % 0 mm
15:04 -0.1 °C -7.6 °C 1032.1 hPa Calm     57 % 0 mm
15:09 -0.2 °C -7.7 °C 1032.1 hPa Calm     57 % 0 mm
15:14 -0.2 °C -7.4 °C 1032.1 hPa NE 0.3 km/h 1.9 km/h 58 % 0 mm
15:19 -0.2 °C -7.4 °C 1032.1 hPa Calm   1.9 km/h 58 % 0 mm
15:24 -0.2 °C -7.3 °C 1032.1 hPa Calm     59 % 0 mm
15:29 -0.2 °C -7.3 °C 1032.1 hPa SW 0.8 km/h 5.6 km/h 59 % 0 mm
15:34 -0.3 °C -7.1 °C 1032.1 hPa SW 2.1 km/h 3.7 km/h 60 % 0 mm
15:39 -0.3 °C -6.7 °C 1032.4 hPa SW 4.2 km/h 8 km/h 62 % 0 mm
15:45 -0.4 °C -5.9 °C 1032.4 hPa WSW 6 km/h 11.1 km/h 66 % 0 mm
15:50 -0.6 °C -5.3 °C 1032.4 hPa SW 6.8 km/h 9.7 km/h 70 % 0 mm
15:55 -0.8 °C -5 °C 1032.1 hPa SSW 2.3 km/h 5.6 km/h 73 % 0 mm
16:00 -0.9 °C -4.7 °C 1032.1 hPa SSW 1.9 km/h 4.8 km/h 76 % 0 mm
16:05 -1.1 °C -4.4 °C 1031.7 hPa Calm   3.7 km/h 78 % 0 mm
16:10 -1.2 °C -4.3 °C 1031.7 hPa SW 1.3 km/h 5.6 km/h 79 % 0 mm
16:15 -1.3 °C -4.3 °C 1031.7 hPa SW 1.3 km/h 3.7 km/h 80 % 0.25 mm
16:20 -1.4 °C -4.2 °C 1031.7 hPa SW 0.5 km/h 3.7 km/h 81 % 0.25 mm
16:25 -1.5 °C -4.2 °C 1031.7 hPa SW 1.1 km/h 3.7 km/h 82 % 0.25 mm
16:30 -1.6 °C -4.1 °C 1031.4 hPa Calm   1.6 km/h 83 % 0.51 mm
16:35 -1.7 °C -4 °C 1031 hPa Calm     84 % 0.51 mm
16:40 -1.7 °C -3.9 °C 1031.4 hPa Calm     85 % 0.76 mm
16:45 -1.8 °C -3.8 °C 1031.4 hPa SSW 0.2 km/h   86 % 0.76 mm
16:50 -1.9 °C -3.9 °C 1031 hPa Calm     86 % 0.76 mm
16:55 -2 °C -3.9 °C 1031 hPa Calm   1.9 km/h 87 % 0.76 mm
17:00 -2.1 °C -3.9 °C 1030.7 hPa SSE 0.5 km/h 1.9 km/h 87 % 1.02 mm
17:05 -2.1 °C -3.9 °C 1030.4 hPa SSE 0.2 km/h 1.6 km/h 87 % 1.02 mm
17:11 -2.1 °C -3.8 °C 1030.4 hPa Calm     88 % 1.02 mm
17:16 -2.2 °C -3.9 °C 1030.4 hPa Calm     88 % 0.76 mm
17:21 -2.2 °C -3.9 °C 1030.4 hPa Calm     88 % 0.76 mm
17:26 -2.2 °C -3.9 °C 1030.4 hPa Calm     88 % 0.76 mm
17:31 -2.2 °C -3.9 °C 1030.4 hPa Calm     88 % 0.51 mm
17:36 -2.3 °C -4 °C 1030 hPa Calm     88 % 0.76 mm
17:41 -2.3 °C -4 °C 1030 hPa Calm     88 % 0.51 mm
17:46 -2.3 °C -4 °C 1030 hPa Calm     88 % 0.51 mm
17:51 -2.3 °C -4 °C 1030 hPa Calm     88 % 0.51 mm
17:56 -2.3 °C -4.1 °C 1030 hPa Calm     88 % 0.25 mm
18:01 -2.3 °C -4.1 °C 1029.7 hPa Calm     88 % 0.25 mm
18:07 -2.3 °C -3.9 °C 1029.7 hPa Calm   1.9 km/h 89 % 0.25 mm
18:12 -2.3 °C -3.9 °C 1029.7 hPa Calm     89 % 0.51 mm
18:17 -2.3 °C -3.9 °C 1029.7 hPa Calm     89 % 0.51 mm
18:22 -2.3 °C -3.9 °C 1029.7 hPa Calm     89 % 0.51 mm
18:27 -2.3 °C -3.9 °C 1029.7 hPa Calm     89 % 0.51 mm
18:32 -2.3 °C -3.9 °C 1029.7 hPa Calm     89 % 0.51 mm
18:37 -2.3 °C -3.9 °C 1029.7 hPa Calm     89 % 0.25 mm
18:42 -2.3 °C -3.9 °C 1029.3 hPa Calm     89 % 0.25 mm
18:47 -2.3 °C -3.8 °C 1029.7 hPa Calm     90 % 0.25 mm
18:52 -2.3 °C -3.8 °C 1029.3 hPa Calm     90 % 0.25 mm
18:57 -2.3 °C -3.7 °C 1029.3 hPa Calm     90 % 0.51 mm
19:02 -2.3 °C -3.7 °C 1029.3 hPa Calm     90 % 0.51 mm
19:07 -2.3 °C -3.7 °C 1029.3 hPa Calm     90 % 0.51 mm
19:13 -2.3 °C -3.7 °C 1029 hPa Calm     90 % 0.25 mm
19:18 -2.2 °C -3.7 °C 1029 hPa Calm     90 % 0.25 mm
19:23 -2.2 °C -3.7 °C 1028.7 hPa Calm     90 % 0.25 mm
19:28 -2.2 °C -3.5 °C 1028.7 hPa Calm     91 % 0.25 mm
19:33 -2.2 °C -3.5 °C 1028.7 hPa Calm     91 % 0.25 mm
19:38 -2.2 °C -3.5 °C 1028.7 hPa Calm     91 % 0.25 mm
19:43 -2.2 °C -3.4 °C 1028.3 hPa Calm     91 % 0.25 mm
19:48 -2.2 °C -3.4 °C 1028.3 hPa Calm     91 % 0.25 mm
19:53 -2.2 °C -3.4 °C 1028.3 hPa Calm     91 % 0.25 mm
19:58 -2.2 °C -3.4 °C 1028 hPa Calm     91 % 0 mm
20:03 -2.2 °C -3.4 °C 1028.3 hPa Calm     91 % 0 mm
20:08 -2.2 °C -3.4 °C 1028.3 hPa Calm     91 % 0 mm
20:13 -2.1 °C -3.4 °C 1028.3 hPa Calm     91 % 0 mm
20:18 -2.1 °C -3.4 °C 1028.3 hPa Calm     91 % 0 mm
20:23 -2.1 °C -3.3 °C 1028 hPa Calm     91 % 0 mm
20:28 -2.1 °C -3.3 °C 1028 hPa Calm     91 % 0 mm
20:33 -2.1 °C -3.3 °C 1028 hPa Calm     91 % 0 mm
20:39 -2.1 °C -3.3 °C 1028 hPa Calm     91 % 0 mm
20:44 -2.1 °C -3.3 °C 1027.7 hPa Calm     91 % 0 mm
20:49 -2 °C -3.1 °C 1027.7 hPa Calm     92 % 0 mm
20:54 -2 °C -3.1 °C 1027.7 hPa Calm     92 % 0 mm
20:59 -2 °C -3.1 °C 1027.7 hPa Calm     92 % 0 mm
21:04 -1.9 °C -3.1 °C 1027.7 hPa Calm     92 % 0 mm
21:09 -1.9 °C -3.1 °C 1027.3 hPa Calm     92 % 0 mm
21:14 -1.9 °C -3.1 °C 1027.3 hPa Calm   1.6 km/h 92 % 0 mm
21:19 -1.9 °C -3 °C 1027.7 hPa Calm     92 % 0 mm
21:24 -1.8 °C -2.9 °C 1027.7 hPa SSE 0.3 km/h 1.9 km/h 92 % 0 mm
21:29 -1.8 °C -2.9 °C 1027.3 hPa Calm     92 % 0 mm
21:34 -1.8 °C -2.9 °C 1027.7 hPa Calm   3.2 km/h 92 % 0 mm
21:39 -1.8 °C -2.9 °C 1027.3 hPa Calm   1.9 km/h 92 % 0 mm
21:44 -1.8 °C -2.9 °C 1027.3 hPa Calm   3.2 km/h 92 % 0 mm
21:49 -1.7 °C -2.8 °C 1027.3 hPa Calm   1.6 km/h 92 % 0 mm
21:54 -1.7 °C -2.8 °C 1027 hPa Calm     92 % 0 mm
21:59 -1.7 °C -2.8 °C 1027 hPa Calm     92 % 0 mm
22:04 -1.7 °C -2.8 °C 1027 hPa Calm     92 % 0 mm
22:09 -1.7 °C -2.8 °C 1027 hPa SSE 0.2 km/h 1.9 km/h 92 % 0 mm
22:14 -1.6 °C -2.7 °C 1026.6 hPa SSE 0.6 km/h 3.7 km/h 92 % 0 mm
22:19 -1.6 °C -2.7 °C 1026.6 hPa SSE 0.2 km/h 1.9 km/h 92 % 0 mm
22:24 -1.6 °C -2.7 °C 1026.6 hPa Calm     92 % 0 mm
22:29 -1.6 °C -2.7 °C 1026.6 hPa Calm     92 % 0 mm
22:34 -1.6 °C -2.7 °C 1026.3 hPa SSE 0.5 km/h 1.9 km/h 92 % 0 mm
22:39 -1.6 °C -2.7 °C 1026.3 hPa Calm     92 % 0 mm
22:44 -1.5 °C -2.6 °C 1026.3 hPa SSE 0.2 km/h 1.9 km/h 92 % 0 mm
22:50 -1.5 °C -2.5 °C 1026.3 hPa SSE 0.2 km/h 3.7 km/h 93 % 0 mm
22:55 -1.4 °C -2.4 °C 1026 hPa Calm   3.7 km/h 93 % 0 mm
22:59 -1.4 °C -2.4 °C 1026 hPa SSE 1.3 km/h 3.7 km/h 93 % 0 mm
23:04 -1.4 °C -2.4 °C 1026 hPa SSE 0.3 km/h 1.6 km/h 93 % 0 mm
23:10 -1.4 °C -2.4 °C 1026 hPa SSE 1 km/h 3.7 km/h 93 % 0 mm
23:15 -1.4 °C -2.4 °C 1026 hPa Calm   1.9 km/h 93 % 0 mm
23:20 -1.3 °C -2.3 °C 1026 hPa SSE 0.2 km/h 1.9 km/h 93 % 0 mm
23:25 -1.3 °C -2.3 °C 1026 hPa Calm     93 % 0 mm
23:30 -1.3 °C -2.3 °C 1025.6 hPa Calm     93 % 0 mm
23:35 -1.3 °C -2.3 °C 1025.6 hPa Calm     93 % 0 mm
23:40 -1.3 °C -2.3 °C 1025.6 hPa Calm   1.9 km/h 93 % 0 mm
23:45 -1.3 °C -2.3 °C 1025.6 hPa Calm     93 % 0 mm
23:50 -1.3 °C -2.3 °C 1025.3 hPa Calm     93 % 0 mm
23:55 -1.3 °C -2.3 °C 1025.3 hPa Calm   1.9 km/h 93 % 0 mm
Crab Meadow Weather
Compliments of Weather Underground - 3 mb

Script developed by  Jim McMurry - jmcmurry@mwt.net Adapted for the template by  Wim van der Kuil - Leuven-Template.eu

Lightning: The average number of deaths from lightning is more than 100 a year with several more deaths from lightning related fires. Lightning injuries account for 3-5 times than those of lightning deaths.